Regional Weather Roundup
Issued by NWS

Home | Current Version | Previous Version | Text Only | Print | Product List | Glossary Off
Versions: 1 2 3 4 5 6 7 8 9 10 11 12 13 14 15 16 17 18 19 20 21 22 23 24 25 26 27 28 29 30 31 32 33 34 35 36 37 38 39 40 41 42 43 44 45 46 47 48 49 50

000
ASUS43 KFSD 241510
RWRSD

WEATHER ROUNDUP FOR SOUTH DAKOTA
NATIONAL WEATHER SERVICE SIOUX FALLS SD
900 AM CST FRI NOV 24 2017

NOTE: "FAIR" INDICATES FEW OR NO CLOUDS BELOW 12,000 FEET WITH NO
SIGNIFICANT WEATHER AND/OR OBSTRUCTIONS TO VISIBILITY.


SDZ001>005-009-010-012>017-241600-
NORTHWEST AND NORTH CENTRAL SOUTH DAKOTA

CITY           SKY/WX    TMP DP  RH WIND       PRES   REMARKS
FAITH            N/A     49  45  86 W22       29.63R
MOBRIDGE       CLOUDY    52  44  74 W12       29.50R
$$

SDZ012>016-024>037-041>051-057-063-072>074-241600-
SOUTHWEST AND SOUTH CENTRAL SOUTH DAKOTA

CITY           SKY/WX    TMP DP  RH WIND       PRES   REMARKS
RAPID CTY ARPT CLOUDY    50  40  68 NW28G38   29.70R
PIERRE         CLOUDY    52  38  58 NW15G25   29.58R
CUSTER         MOCLDY    45  31  58 NW17G32   29.74R
ELLSWORTH AFB  CLOUDY    50  42  76 NW24G35   29.70R
PHILIP         MOCLDY    56  40  55 NW30G41   29.65R
PINE RIDGE     CLOUDY    57  37  47 N18G30    29.72R
SPEARFISH      LGT RAIN  45  39  81 W23G33    29.74F
WINNER         FAIR      58  40  51 NW15G25   29.57R
$$

SDZ004>011-016>023-039-040-241600-
NORTHEAST SOUTH DAKOTA

CITY           SKY/WX    TMP DP  RH WIND       PRES   REMARKS
ABERDEEN       LGT RAIN  49  40  71 W6        29.46R
WATERTOWN      MOSUNNY   48  38  68 W9        29.44R
BROOKINGS      SUNNY     36  34  92 CALM      29.42S
SISSETON         N/A     56  39  53 NW18      29.38R
$$

SDZ017-020-022-023-036>040-048>070-241600-
SOUTHEAST SOUTH DAKOTA

CITY           SKY/WX    TMP DP  RH WIND       PRES   REMARKS
SIOUX FALLS    MOSUNNY   45  39  79 W5        29.44R
HURON          CLOUDY    45  39  79 NW10      29.49R
CHAMBERLAIN    SUNNY     49  40  70 NW10      29.54R
MITCHELL       MOSUNNY   49  40  71 NW8       29.46R
YANKTON        SUNNY     53  41  63 SW8       29.44S
$$

ABBREVIATIONS USED IN REMARKS
   TC - TEMPERATURE IN CELSIUS
  WCI - WIND CHILL INDEX
   HX - HEAT INDEX
  VSB - VISIBILITY





USA.gov is the U.S. government's official web portal to all federal, state and local government web resources and services.